FW3881 Weather Reports


time (UTC)temp
F
wind
direction
speed
knots
gust
knots
rain 1hr
in
rain 24hr
in
rain mn
in
humidity
%
barometer
mb
20260509212652 62 73 0.0 0.0 0.00 0.00 0.00 68 1010.2
20260509212412 62 61 0.0 0.0 0.00 0.00 0.00 66 1010.2
20260509211645 62 323 0.0 0.0 0.00 0.00 0.00 66 1010.1
20260509211145 62 323 0.0 0.0 0.00 0.00 0.00 66 1010.2
20260509210902 61 323 0.0 0.0 0.00 0.00 0.00 66 1010.3
20260509210135 61 322 0.0 0.9 0.00 0.00 0.00 65 1010.3
20260509205633 62 121 0.0 1.7 0.00 0.00 0.00 68 1010.3
20260509205129 61 124 0.0 1.7 0.00 0.00 0.00 67 1010.5
20260509204625 61 124 0.0 0.0 0.00 0.00 0.00 68 1010.5
20260509204124 60 124 0.0 0.0 0.00 0.00 0.00 69 1010.7
20260509203621 60 124 0.0 0.0 0.00 0.00 0.00 68 1010.7
20260509203051 60 124 0.0 0.0 0.00 0.00 0.00 67 1010.8
20260509202552 60 124 0.0 0.0 0.00 0.00 0.00 68 1010.5
20260509202509 60 124 0.0 0.0 0.00 0.00 0.00 69 1010.5
20260509201455 60 125 0.0 0.0 0.00 0.00 0.00 68 1010.5
20260509200927 60 125 0.0 0.0 0.00 0.00 0.00 68 1010.5
20260509200358 60 125 0.0 0.0 0.00 0.00 0.00 69 1010.8
20260509195857 60 125 0.0 1.7 0.00 0.00 0.00 69 1010.7
20260509195351 60 125 0.0 1.7 0.00 0.00 0.00 69 1010.8
20260509194849 60 122 0.9 2.6 0.00 0.00 0.00 66 1010.8
20260509194323 60 123 0.9 4.3 0.00 0.00 0.00 69 1010.8
20260509193753 60 96 0.9 4.3 0.00 0.00 0.00 66 1010.7
20260509193251 60 114 0.0 0.0 0.00 0.00 0.00 68 1010.8
20260509192722 61 131 0.0 3.5 0.00 0.00 0.00 66 1010.8
20260509192451 61 237 0.0 3.5 0.00 0.00 0.00 67 1010.8
20260509191701 61 240 0.0 1.7 0.00 0.00 0.00 68 1010.8
20260509191201 61 247 0.9 3.5 0.00 0.00 0.00 66 1010.7
20260509190701 61 352 0.9 3.5 0.00 0.00 0.00 66 1010.8
20260509190205 61 88 0.0 4.3 0.00 0.00 0.00 67 1010.7
20260509185652 60 96 0.9 4.3 0.00 0.00 0.00 68 1010.9
20260509185156 60 71 0.9 4.3 0.00 0.00 0.00 65 1011.0
20260509184626 62 112 0.9 4.3 0.00 0.00 0.00 63 1011.1
20260509184354 62 158 0.9 4.3 0.00 0.00 0.00 69 1011.1
20260509183558 61 160 0.9 3.5 0.00 0.00 0.00 66 1011.0
20260509183030 62 111 0.9 2.6 0.00 0.00 0.00 69 1011.1
20260509182506 61 150 0.9 6.1 0.00 0.00 0.00 67 1011.1
20260509181938 61 177 1.7 6.1 0.00 0.00 0.00 67 1011.2
20260509181412 59 77 0.0 5.2 0.00 0.00 0.00 70 1011.1
20260509180911 59 73 0.0 5.2 0.00 0.00 0.00 69 1011.2
20260509180347 59 94 0.0 5.2 0.00 0.00 0.00 67 1011.4
20260509180301 59 75 1.7 2.6 0.00 0.00 0.00 71 1011.6
20260509175254 59 65 0.9 6.1 0.00 0.00 0.00 70 1011.7
20260509174748 59 23 0.0 6.1 0.00 0.00 0.00 73 1011.9
20260509174246 58 87 0.0 3.5 0.00 0.00 0.00 71 1012.0
20260509173718 59 241 0.0 3.5 0.00 0.00 0.00 72 1012.1
20260509173152 59 229 0.9 3.5 0.00 0.00 0.00 74 1012.1
20260509172628 58 113 0.9 3.5 0.00 0.00 0.00 77 1012.1
20260509172101 57 167 0.0 2.6 0.00 0.00 0.00 76 1012.2
20260509171558 57 107 0.0 0.0 0.00 0.00 0.00 78 1012.3
20260509171057 56 102 0.0 0.0 0.00 0.00 0.00 78 1012.4
20260509170528 56 102 0.0 0.0 0.00 0.00 0.00 78 1012.3
20260509170027 56 103 0.0 0.0 0.00 0.00 0.00 78 1012.3
20260509165458 56 102 0.0 0.0 0.00 0.00 0.00 78 1012.3
20260509164958 56 102 0.0 0.0 0.00 0.00 0.00 77 1012.1
20260509164654 56 102 0.0 0.0 0.00 0.00 0.00 79 1012.0
20260509163927 56 79 0.0 0.9 0.00 0.00 0.00 77 1011.8
20260509163358 56 74 0.9 1.7 0.00 0.00 0.00 78 1011.9
20260509162857 55 74 0.9 3.5 0.00 0.00 0.00 80 1011.9
20260509162328 55 73 0.9 3.5 0.00 0.00 0.00 77 1012.0
20260509162049 55 76 0.0 2.6 0.00 0.00 0.00 78 1012.0
20260509161309 55 92 0.0 0.0 0.00 0.00 0.00 77 1012.1
20260509160815 56 130 0.0 0.0 0.00 0.00 0.00 79 1012.2
20260509160528 56 127 0.0 0.0 0.00 0.00 0.00 79 1012.1
20260509155814 55 128 0.0 1.7 0.00 0.00 0.00 78 1012.2
20260509155527 55 115 0.0 1.7 0.00 0.00 0.00 76 1012.4
20260509155027 55 50 0.0 2.6 0.00 0.00 0.00 78 1012.5
20260509154240 56 65 0.0 2.6 0.00 0.00 0.00 77 1012.3
20260509153941 56 84 0.0 0.9 0.00 0.00 0.00 77 1012.3
20260509153412 56 200 0.0 0.0 0.00 0.00 0.00 78 1012.3
20260509152616 56 210 0.0 0.9 0.00 0.00 0.00 78 1012.3
20260509152116 56 206 0.0 0.0 0.00 0.00 0.00 75 1012.3
20260509151546 56 200 0.0 0.0 0.00 0.00 0.00 75 1012.5
20260509151044 56 199 0.0 0.0 0.00 0.00 0.00 80 1012.4
20260509150748 56 126 0.0 0.0 0.00 0.00 0.00 79 1012.5
20260509145951 56 231 0.0 0.0 0.00 0.00 0.00 76 1012.7
20260509145447 56 229 0.0 0.0 0.00 0.00 0.00 82 1012.7
20260509145210 55 228 0.0 0.0 0.00 0.00 0.00 82 1012.7
20260509144419 54 228 0.0 0.0 0.00 0.00 0.00 80 1012.5
20260509143851 54 228 0.0 0.0 0.00 0.00 0.00 81 1012.5
20260509143610 53 228 0.0 0.0 0.00 0.00 0.00 81 1012.7
20260509142847 53 292 0.0 0.0 0.00 0.00 0.00 83 1012.4
20260509142319 53 295 0.0 0.0 0.00 0.00 0.00 84 1012.1
20260509141818 52 237 0.0 0.0 0.00 0.00 0.00 85 1011.9
20260509141249 52 233 0.0 0.0 0.00 0.00 0.00 85 1011.8
20260509141016 52 230 0.0 0.0 0.00 0.00 0.00 86 1011.9
20260509140222 52 230 0.0 0.0 0.00 0.00 0.00 85 1012.0
20260509135719 52 230 0.0 0.0 0.00 0.00 0.00 85 1012.2
20260509135152 52 229 0.0 0.0 0.00 0.00 0.00 85 1012.2
20260509134630 52 229 0.0 0.0 0.00 0.00 0.00 85 1012.2
20260509134125 52 229 0.0 0.0 0.00 0.00 0.00 83 1012.3
20260509133622 52 229 0.0 0.0 0.00 0.00 0.00 83 1012.2
20260509133119 52 230 0.0 0.0 0.00 0.00 0.00 82 1012.2
20260509132616 52 230 0.0 0.0 0.00 0.00 0.00 81 1012.1
20260509132111 52 229 0.0 0.9 0.00 0.00 0.00 81 1012.3
20260509131612 52 229 0.0 2.6 0.00 0.00 0.00 81 1012.3
20260509131042 52 228 0.0 2.6 0.00 0.00 0.00 80 1012.2
20260509130546 52 223 0.0 0.9 0.00 0.00 0.00 79 1012.0
20260509130013 53 342 0.0 0.0 0.00 0.00 0.00 78 1011.8
20260509125513 53 342 0.0 0.0 0.00 0.00 0.00 77 1011.8
20260509125209 53 203 0.0 0.9 0.00 0.00 0.00 75 1012.0
20260509124419 54 202 0.9 2.6 0.00 0.00 0.00 72 1012.0
20260509123916 54 208 0.0 2.6 0.00 0.00 0.00 72 1012.2
20260509123414 54 104 0.0 2.6 0.00 0.00 0.00 73 1012.1
20260509122916 54 249 0.0 2.6 0.00 0.00 0.00 73 1012.2
20260509122350 54 249 0.9 4.3 0.00 0.00 0.00 70 1012.1
20260509121825 54 228 0.0 4.3 0.00 0.00 0.00 70 1012.1
20260509121259 54 192 0.0 1.7 0.00 0.00 0.00 72 1012.0
20260509120758 54 198 0.0 1.7 0.00 0.00 0.00 71 1012.0
20260509120245 54 179 0.0 0.9 0.00 0.00 0.00 71 1011.9
20260509115746 53 85 0.0 0.9 0.00 0.00 0.00 70 1012.0
20260509115724 53 81 0.0 0.0 0.00 0.00 0.00 72 1012.1
20260509114741 53 81 0.0 0.9 0.00 0.00 0.00 68 1012.0
20260509114215 53 81 0.0 1.7 0.00 0.00 0.00 70 1012.0
20260509113936 52 38 0.0 1.7 0.00 0.00 0.00 70 1011.8
20260509113149 52 215 0.0 1.7 0.00 0.00 0.00 70 1011.8
20260509112856 52 214 0.0 1.7 0.00 0.00 0.00 71 1011.7
20260509112355 52 88 0.0 1.7 0.00 0.00 0.00 71 1011.8
20260509111630 52 212 0.0 1.7 0.00 0.00 0.00 72 1012.0
20260509111132 52 210 0.0 1.7 0.00 0.00 0.00 71 1012.1
20260509110608 52 211 0.0 0.9 0.00 0.00 0.00 70 1012.0
20260509110112 52 210 0.0 0.9 0.00 0.00 0.00 70 1012.0
20260509105542 52 210 0.0 1.7 0.00 0.00 0.00 71 1011.9
20260509105038 52 209 0.0 1.7 0.00 0.00 0.00 70 1011.9
20260509104519 52 209 0.0 1.7 0.00 0.00 0.00 71 1011.7
20260509104016 51 209 0.0 1.7 0.00 0.00 0.00 71 1011.6
20260509103453 51 197 0.0 0.0 0.00 0.00 0.00 71 1011.6
20260509102934 51 196 0.0 0.0 0.00 0.00 0.00 72 1011.6
20260509102433 51 196 0.0 0.0 0.00 0.00 0.00 72 1011.6
20260509101936 51 196 0.0 0.0 0.00 0.00 0.00 72 1011.6
20260509101413 51 196 0.0 0.0 0.00 0.00 0.00 71 1011.7
20260509100857 51 196 0.0 0.0 0.00 0.00 0.00 72 1011.7
20260509100349 51 196 0.0 0.0 0.00 0.00 0.00 70 1011.6
20260509095848 51 196 0.0 0.0 0.00 0.00 0.00 71 1011.5
20260509095344 51 196 0.0 0.0 0.00 0.00 0.00 70 1011.6
20260509094841 51 233 0.0 0.0 0.00 0.00 0.00 69 1011.5
20260509094343 51 233 0.0 0.0 0.00 0.00 0.00 69 1011.5
20260509094301 51 233 0.0 0.0 0.00 0.00 0.00 69 1011.7
20260509093302 51 233 0.0 0.0 0.00 0.00 0.00 70 1011.7
20260509092757 51 233 0.0 0.0 0.00 0.00 0.00 69 1011.6
20260509092305 51 233 0.0 0.0 0.00 0.00 0.00 69 1011.5
20260509092221 52 221 0.0 2.6 0.00 0.00 0.00 69 1011.6
20260509091734 52 221 0.0 0.0 0.00 0.00 0.00 69 1011.7
20260509090731 52 165 0.0 2.6 0.00 0.00 0.00 68 1011.6
20260509090231 52 291 0.0 2.6 0.00 0.00 0.00 67 1011.7
20260509085731 52 179 0.9 2.6 0.00 0.00 0.00 67 1011.7
20260509085230 52 176 0.0 1.7 0.00 0.00 0.00 67 1011.6
20260509084703 52 172 0.0 4.3 0.00 0.00 0.00 68 1011.6
20260509084635 52 235 0.0 4.3 0.00 0.00 0.00 68 1011.7
20260509083702 52 280 0.0 2.6 0.00 0.00 0.00 68 1011.7
20260509083418 52 280 0.0 2.6 0.00 0.00 0.00 68 1011.7
20260509082656 52 273 0.0 0.0 0.00 0.00 0.00 69 1011.7
20260509082141 52 263 0.0 0.0 0.00 0.00 0.00 69 1011.8
20260509081605 52 264 0.0 0.0 0.00 0.00 0.00 69 1011.8
20260509081300 52 264 0.0 0.9 0.00 0.00 0.00 69 1011.8
20260509080518 52 265 0.0 0.9 0.00 0.00 0.00 67 1011.8
20260509075946 52 264 0.0 0.9 0.00 0.00 0.00 68 1011.8
20260509075423 52 264 0.0 0.9 0.00 0.00 0.00 68 1011.8
20260509074922 52 173 0.0 0.0 0.00 0.00 0.00 67 1011.7
20260509074409 52 154 0.0 0.9 0.00 0.00 0.00 67 1011.8
20260509073842 52 153 0.0 0.9 0.00 0.00 0.00 68 1011.7
20260509073316 52 165 0.0 0.9 0.00 0.00 0.00 68 1011.7
20260509072813 52 169 0.0 1.7 0.00 0.00 0.00 68 1011.9
20260509072539 52 169 0.0 1.7 0.00 0.00 0.00 68 1011.9
20260509072440 52 15 0.0 2.6 0.00 0.00 0.00 69 1011.8
20260509071221 52 15 0.0 3.5 0.00 0.00 0.00 71 1011.9
20260509070655 51 168 0.0 1.7 0.00 0.00 0.00 73 1011.9
20260509070149 51 244 0.0 0.0 0.00 0.00 0.00 72 1011.8
20260509065648 51 244 0.0 0.0 0.00 0.00 0.00 71 1011.9
20260509065131 51 244 0.0 0.0 0.00 0.00 0.00 71 1011.9
20260509064900 52 244 0.0 0.0 0.00 0.00 0.00 71 1012.0
20260509064104 52 244 0.0 0.0 0.00 0.00 0.00 70 1012.0
20260509063821 52 244 0.0 0.0 0.00 0.00 0.00 69 1012.0
20260509063038 52 242 0.0 0.0 0.00 0.00 0.00 69 1012.1
20260509062517 52 242 0.0 0.0 0.00 0.00 0.00 68 1012.2
20260509062018 52 242 0.0 0.0 0.00 0.00 0.00 68 1012.2
20260509061449 52 240 0.0 0.0 0.00 0.00 0.00 68 1012.3
20260509060948 52 240 0.0 0.0 0.00 0.00 0.00 68 1012.3
20260509060423 52 240 0.0 0.0 0.00 0.00 0.00 67 1012.3
20260509060129 52 150 0.0 0.0 0.00 0.00 0.00 67 1012.3
20260509055338 53 150 0.0 0.0 0.00 0.00 0.00 66 1012.3
20260509054822 53 148 0.0 0.0 0.00 0.00 0.00 66 1012.4
20260509054320 53 274 0.0 0.9 0.00 0.00 0.00 64 1012.4
20260509053752 54 274 0.0 2.6 0.00 0.00 0.00 64 1012.4
20260509053513 54 290 0.0 3.5 0.00 0.00 0.00 64 1012.5
20260509053006 54 220 0.0 3.5 0.00 0.00 0.00 65 1012.3
20260509052507 53 221 0.0 2.6 0.00 0.00 0.00 64 1012.4
20260509052000 53 264 0.0 1.7 0.00 0.00 0.00 65 1012.4
20260509051501 53 263 0.0 1.7 0.00 0.00 0.00 63 1012.4
20260509050731 54 194 0.0 1.7 0.00 0.00 0.00 65 1012.4
20260509050205 54 194 0.0 1.7 0.00 0.00 0.00 64 1012.7
20260509045702 54 194 0.0 1.7 0.00 0.00 0.00 65 1012.7
20260509045201 54 209 0.0 1.7 0.00 0.00 0.00 65 1012.8
20260509044656 54 209 0.0 2.6 0.00 0.00 0.00 65 1012.9
20260509044152 54 234 0.0 0.0 0.00 0.00 0.00 65 1012.9
20260509043914 54 245 0.0 0.9 0.00 0.00 0.00 65 1012.9
20260509043148 54 246 0.0 0.9 0.00 0.00 0.00 65 1012.9
20260509042622 54 244 0.0 0.9 0.00 0.00 0.00 64 1013.0
20260509042125 54 239 0.0 1.7 0.00 0.00 0.00 63 1013.0
20260509041558 54 294 0.0 3.5 0.00 0.00 0.00 64 1012.9
20260509041054 54 226 0.0 3.5 0.00 0.00 0.00 64 1013.0
20260509040553 53 242 0.0 0.9 0.00 0.00 0.00 64 1013.1
20260509040304 54 242 0.0 0.9 0.00 0.00 0.00 63 1013.0
20260509035542 54 242 0.0 0.9 0.00 0.00 0.00 62 1013.0
20260509035020 54 241 0.0 0.0 0.00 0.00 0.00 61 1013.1
20260509034449 54 241 0.0 0.0 0.00 0.00 0.00 60 1013.1
20260509033948 54 241 0.0 0.0 0.00 0.00 0.00 59 1013.2
20260509033427 54 241 0.0 0.0 0.00 0.00 0.00 57 1013.2
20260509032928 54 252 0.0 0.0 0.00 0.00 0.00 56 1013.2
20260509032404 54 252 0.0 0.0 0.00 0.00 0.00 55 1013.2
20260509031908 55 252 0.0 0.0 0.00 0.00 0.00 55 1013.3
20260509031625 54 252 0.0 0.0 0.00 0.00 0.00 56 1013.2
20260509030901 54 252 0.0 0.0 0.00 0.00 0.00 57 1013.2
20260509030819 55 252 0.0 0.0 0.00 0.00 0.00 60 1013.3
20260509025811 55 252 0.0 0.0 0.00 0.00 0.00 61 1013.4
20260509025245 54 252 0.0 0.0 0.00 0.00 0.00 58 1013.4
20260509024744 54 252 0.0 0.0 0.00 0.00 0.00 59 1013.5
20260509024220 54 252 0.0 0.0 0.00 0.00 0.00 60 1013.6
20260509023707 54 252 0.0 0.0 0.00 0.00 0.00 58 1013.6
20260509023206 54 252 0.0 0.0 0.00 0.00 0.00 57 1013.6
20260509022641 55 252 0.0 0.0 0.00 0.00 0.00 58 1013.6
20260509022140 55 252 0.0 0.0 0.00 0.00 0.00 58 1013.7
20260509021629 55 252 0.0 0.0 0.00 0.00 0.00 57 1013.7
20260509021400 55 252 0.0 0.0 0.00 0.00 0.00 57 1013.7
20260509020832 55 252 0.0 0.0 0.00 0.00 0.00 58 1013.7
20260509020046 55 252 0.0 0.0 0.00 0.00 0.00 57 1013.6
20260509015551 55 252 0.0 0.0 0.00 0.00 0.00 59 1013.5
20260509015024 55 252 0.0 0.0 0.00 0.00 0.00 61 1013.5
20260509014455 55 252 0.0 0.0 0.00 0.00 0.00 61 1013.5
20260509013952 55 252 0.0 0.0 0.00 0.00 0.00 60 1013.4
20260509013649 55 252 0.0 0.0 0.00 0.00 0.00 58 1013.4
20260509012922 55 252 0.0 0.0 0.00 0.00 0.00 57 1013.5
20260509012649 56 252 0.0 0.0 0.00 0.00 0.00 57 1013.4
20260509011916 56 252 0.0 0.0 0.00 0.00 0.00 57 1013.4
20260509011411 55 252 0.0 0.0 0.00 0.00 0.00 56 1013.4
20260509010910 55 252 0.0 0.0 0.00 0.00 0.00 57 1013.4
20260509010350 55 252 0.0 0.0 0.00 0.00 0.00 58 1013.3
20260509010307 55 252 0.0 0.0 0.00 0.00 0.00 56 1013.3
20260509005551 55 252 0.0 0.0 0.00 0.00 0.00 57 1013.3
20260509004806 55 252 0.0 0.0 0.00 0.00 0.00 59 1013.4
20260509004242 56 252 0.0 0.0 0.00 0.00 0.00 59 1013.3
20260509003722 55 252 0.0 0.0 0.00 0.00 0.00 58 1013.3
20260509003201 55 252 0.0 0.0 0.00 0.00 0.00 58 1013.3
20260509002640 55 252 0.0 0.0 0.00 0.00 0.00 58 1013.3
20260509002140 54 71 0.0 0.0 0.00 0.00 0.00 61 1013.2
20260509001625 54 72 0.0 0.0 0.00 0.00 0.00 60 1013.1
20260509001105 54 72 0.0 0.0 0.00 0.00 0.00 64 1013.0
20260509000542 55 72 0.0 0.0 0.00 0.00 0.00 64 1013.1
20260509000038 55 72 0.0 0.0 0.00 0.00 0.00 63 1013.0
20260508235802 55 72 0.0 0.0 0.00 0.00 0.00 60 1012.9
20260508235009 55 72 0.0 0.0 0.00 0.00 0.00 61 1012.8
20260508234508 56 72 0.0 0.0 0.00 0.00 0.00 61 1012.5
20260508233949 56 72 0.0 0.0 0.00 0.00 0.00 58 1012.5
20260508233430 56 72 0.0 0.0 0.00 0.00 0.00 57 1012.7
20260508232907 57 72 0.0 0.0 0.00 0.00 0.00 58 1012.5
20260508232411 57 179 0.0 0.0 0.00 0.00 0.00 58 1012.5
20260508232111 57 179 0.0 0.0 0.00 0.00 0.00 59 1012.5
20260508231550 58 179 0.0 4.3 0.00 0.00 0.00 57 1012.5
20260508230821 58 179 0.0 4.3 0.00 0.00 0.00 53 1012.4
20260508230323 58 68 0.0 0.0 0.00 0.00 0.00 55 1012.4
20260508230019 58 115 0.0 0.0 0.00 0.00 0.00 56 1012.3
20260508225230 58 104 0.0 0.0 0.00 0.00 0.00 53 1012.3
20260508224729 58 104 0.0 0.0 0.00 0.00 0.00 54 1012.4
20260508224227 59 195 0.0 2.6 0.00 0.00 0.00 52 1012.5
20260508223700 59 194 0.0 2.6 0.00 0.00 0.00 52 1012.5
20260508223159 59 90 0.0 2.6 0.00 0.00 0.00 50 1012.4
20260508222631 59 75 0.9 2.6 0.00 0.00 0.00 49 1012.5
20260508222104 59 229 0.9 2.6 0.00 0.00 0.00 52 1012.3
20260508221602 59 121 0.9 7.0 0.00 0.00 0.00 50 1012.4
20260508221049 59 104 0.9 7.0 0.00 0.00 0.00 50 1012.4
20260508220546 60 199 0.9 4.3 0.00 0.00 0.00 48 1012.5
20260508220046 60 194 0.9 4.3 0.00 0.00 0.00 46 1012.4
20260508215519 60 104 0.9 5.2 0.00 0.00 0.00 46 1012.5
20260508214950 60 277 0.9 5.2 0.00 0.00 0.00 47 1012.4
20260508214451 61 133 0.9 3.5 0.00 0.00 0.00 47 1012.4
20260508213922 61 238 0.9 4.3 0.00 0.00 0.00 46 1012.4
20260508213412 61 42 1.7 4.3 0.00 0.00 0.00 47 1012.3